Marshall, MN

11:38 AM CDT on April 19, 2018 (GMT -0500)
Marshall Municipal-Ryan

Weather History for KMML - September, 2013

Change the Weather History Date:

Friday, September 20, 2013

  Actual Average Record
Temperature  
Mean Temperature 52 °F -  
Max Temperature 60 °F 67 °F 94 °F (1972)
Min Temperature 44 °F 47 °F 30 °F (2006)
Degree Days  
Heating Degree Days 13    
Growing Degree Days 2 (Base 50)    
Moisture  
Dew Point 44 °F    
Average Humidity 69    
Maximum Humidity 82    
Minimum Humidity 45    
Precipitation  
Precipitation 0.00 in - - ()
Sea Level Pressure  
Sea Level Pressure 29.95 in    
Wind  
Wind Speed 12 mph (WNW)    
Max Wind Speed 18 mph    
Max Gust Speed 24 mph    
Visibility 10 miles    
Events      
Averages and records for this station are not official NWS values.
T = Trace of Precipitation, MM = Missing Value Source: NWS Daily Summary

Daily Weather History Graph

Daily Weather History Graph

Search for Another Location

Airport or City:

Astronomy

Sep. 20, 2013 Rise Set
Actual Time 7:08 AM CDT 7:23 PM CDT
Civil Twilight 6:39 AM CDT 7:52 PM CDT
Nautical Twilight 6:05 AM CDT 8:27 PM CDT
Astronomical Twilight 5:29 AM CDT 9:02 PM CDT
Moon 7:52 PM CDT (9/20) 8:28 AM CDT (9/20)
Length of Visible Light 13h 13m
Length of Day
12h 15m
Full, 98% of the Moon is Illuminated
Sep 20
Full
Sep 26
Last Quarter
Oct 4
New
Oct 11
First Quarter
Oct 18
Full

Hourly Weather History & Observations

Time (CDT) Temp. Windchill Dew Point Humidity Pressure Visibility Wind Dir Wind Speed Gust Speed Precip Events Conditions
12:15 AM 53.6 °F - 46.4 °F 77% 29.92 in 10.0 mi West 10.4 mph - N/A   Clear
12:35 AM 55.4 °F - 46.4 °F 72% 29.91 in 10.0 mi WNW 11.5 mph - N/A   Clear
12:55 AM 53.6 °F - 44.6 °F 72% 29.90 in 10.0 mi WNW 11.5 mph - N/A   Clear
1:15 AM 53.6 °F - 44.6 °F 72% 29.91 in 10.0 mi West 11.5 mph - N/A   Clear
1:35 AM 51.8 °F - 44.6 °F 76% 29.91 in 10.0 mi West 9.2 mph - N/A   Clear
1:55 AM 51.8 °F - 46.4 °F 82% 29.91 in 10.0 mi West 6.9 mph - N/A   Clear
2:15 AM 51.8 °F - 44.6 °F 76% 29.91 in 10.0 mi West 9.2 mph - N/A   Clear
2:35 AM 51.8 °F - 44.6 °F 76% 29.91 in 10.0 mi West 11.5 mph - N/A   Scattered Clouds
2:55 AM 53.6 °F - 44.6 °F 72% 29.91 in 10.0 mi West 10.4 mph - N/A   Overcast
3:15 AM 53.6 °F - 46.4 °F 77% 29.90 in 10.0 mi West 8.1 mph - N/A   Overcast
3:35 AM 53.6 °F - 46.4 °F 77% 29.90 in 10.0 mi West 9.2 mph - N/A   Overcast
3:55 AM 55.4 °F - 46.4 °F 72% 29.90 in 10.0 mi West 10.4 mph - N/A   Overcast
4:15 AM 55.4 °F - 46.4 °F 72% 29.90 in 10.0 mi West 15.0 mph 19.6 mph N/A   Overcast
4:35 AM 55.4 °F - 46.4 °F 72% 29.90 in 10.0 mi WNW 11.5 mph - N/A   Overcast
4:55 AM 53.6 °F - 46.4 °F 77% 29.90 in 8.0 mi WNW 17.3 mph 23.0 mph N/A   Overcast
5:15 AM 53.6 °F - 46.4 °F 77% 29.90 in 7.0 mi West 16.1 mph 19.6 mph N/A   Overcast
5:35 AM 53.6 °F - 46.4 °F 77% 29.90 in 5.0 mi WNW 15.0 mph 19.6 mph N/A   Overcast
5:55 AM 53.6 °F - 46.4 °F 77% 29.90 in 10.0 mi WNW 17.3 mph 23.0 mph N/A   Overcast
6:15 AM 53.6 °F - 46.4 °F 77% 29.91 in 10.0 mi WNW 18.4 mph 23.0 mph N/A   Overcast
6:35 AM 53.6 °F - 48.2 °F 82% 29.92 in 8.0 mi WNW 16.1 mph - N/A   Overcast
6:55 AM 53.6 °F - 48.2 °F 82% 29.92 in 9.0 mi WNW 15.0 mph - N/A   Overcast
7:15 AM 53.6 °F - 48.2 °F 82% 29.93 in 10.0 mi NW 13.8 mph - N/A   Overcast
7:35 AM 53.6 °F - 48.2 °F 82% 29.93 in 10.0 mi NW 12.7 mph 18.4 mph N/A   Overcast
7:55 AM 53.6 °F - 46.4 °F 77% 29.94 in 10.0 mi NW 18.4 mph 24.2 mph N/A   Overcast
8:15 AM 53.6 °F - 46.4 °F 77% 29.95 in 10.0 mi NW 16.1 mph - N/A   Overcast
8:35 AM 53.6 °F - 48.2 °F 82% 29.95 in 10.0 mi NW 15.0 mph - N/A   Overcast
8:55 AM 53.6 °F - 46.4 °F 77% 29.96 in 5.0 mi NW 18.4 mph 23.0 mph N/A   Overcast
9:15 AM 53.6 °F - 46.4 °F 77% 29.96 in 10.0 mi NW 13.8 mph 19.6 mph N/A   Overcast
9:35 AM 55.4 °F - 46.4 °F 72% 29.96 in 10.0 mi NW 12.7 mph - N/A   Overcast
9:55 AM 55.4 °F - 46.4 °F 72% 29.97 in 10.0 mi NW 15.0 mph - N/A   Overcast
10:15 AM 53.6 °F - 46.4 °F 77% 29.98 in 10.0 mi NW 13.8 mph - N/A   Overcast
10:35 AM 53.6 °F - 46.4 °F 77% 29.98 in 10.0 mi NW 13.8 mph - N/A   Overcast
10:55 AM 53.6 °F - 46.4 °F 77% 29.98 in 10.0 mi WNW 13.8 mph - N/A   Overcast
11:15 AM 55.4 °F - 44.6 °F 67% 29.98 in 10.0 mi NW 17.3 mph - N/A   Overcast
11:35 AM 55.4 °F - 44.6 °F 67% 29.98 in 10.0 mi WNW 15.0 mph - N/A   Overcast
11:55 AM 57.2 °F - 44.6 °F 63% 29.98 in 10.0 mi WNW 15.0 mph 23.0 mph N/A   Overcast
12:15 PM 57.2 °F - 44.6 °F 63% 29.97 in 10.0 mi NW 17.3 mph - N/A   Overcast
12:35 PM 57.2 °F - 44.6 °F 63% 29.97 in 10.0 mi NW 17.3 mph - N/A   Overcast
12:55 PM 57.2 °F - 44.6 °F 63% 29.97 in 10.0 mi NW 18.4 mph - N/A   Overcast
1:15 PM 57.2 °F - 42.8 °F 59% 29.97 in 10.0 mi NW 16.1 mph 23.0 mph N/A   Overcast
1:35 PM 57.2 °F - 42.8 °F 59% 29.96 in 10.0 mi WNW 18.4 mph 24.2 mph N/A   Overcast
1:55 PM 57.2 °F - 41.0 °F 55% 29.96 in 10.0 mi NW 16.1 mph - N/A   Overcast
2:15 PM 57.2 °F - 41.0 °F 55% 29.96 in 10.0 mi WNW 18.4 mph - N/A   Overcast
2:35 PM 57.2 °F - 41.0 °F 55% 29.96 in 10.0 mi WNW 18.4 mph 24.2 mph N/A   Overcast
2:55 PM 57.2 °F - 39.2 °F 51% 29.96 in 10.0 mi WNW 17.3 mph - N/A   Overcast
3:15 PM 57.2 °F - 41.0 °F 55% 29.96 in 10.0 mi WNW 15.0 mph 23.0 mph N/A   Overcast
3:35 PM 59.0 °F - 39.2 °F 48% 29.96 in 10.0 mi WNW 17.3 mph 21.9 mph N/A   Overcast
3:55 PM 57.2 °F - 39.2 °F 51% 29.96 in 10.0 mi NW 17.3 mph 21.9 mph N/A   Overcast
4:15 PM 57.2 °F - 39.2 °F 51% 29.96 in 10.0 mi NNW 15.0 mph - N/A   Overcast
4:35 PM 59.0 °F - 39.2 °F 48% 29.96 in 10.0 mi NNW 15.0 mph 20.7 mph N/A   Overcast
4:55 PM 60.8 °F - 39.2 °F 45% 29.95 in 10.0 mi NNW 12.7 mph - N/A   Overcast
5:15 PM 60.8 °F - 39.2 °F 45% 29.95 in 10.0 mi NNW 11.5 mph 17.3 mph N/A   Mostly Cloudy
5:35 PM 60.8 °F - 41.0 °F 48% 29.95 in 10.0 mi NNW 12.7 mph - N/A   Mostly Cloudy
5:55 PM 60.8 °F - 39.2 °F 45% 29.95 in 10.0 mi NW 8.1 mph - N/A   Scattered Clouds
6:15 PM 60.8 °F - 39.2 °F 45% 29.94 in 10.0 mi NNW 11.5 mph - N/A   Clear
6:35 PM 59.0 °F - 41.0 °F 51% 29.95 in 10.0 mi North 8.1 mph - N/A   Scattered Clouds
6:55 PM 57.2 °F - 41.0 °F 55% 29.95 in 10.0 mi NNW 4.6 mph - N/A   Partly Cloudy
7:15 PM 57.2 °F - 41.0 °F 55% 29.95 in 10.0 mi North 5.8 mph - N/A   Clear
7:35 PM 55.4 °F - 41.0 °F 58% 29.95 in 10.0 mi North 4.6 mph - N/A   Clear
7:55 PM 53.6 °F - 42.8 °F 67% 29.95 in 10.0 mi NW 3.5 mph - N/A   Clear
8:15 PM 51.8 °F - 42.8 °F 71% 29.96 in 10.0 mi West 4.6 mph - N/A   Clear
8:35 PM 48.2 °F - 42.8 °F 82% 29.96 in 10.0 mi WSW 4.6 mph - N/A   Clear
8:55 PM 48.2 °F - 42.8 °F 82% 29.97 in 10.0 mi West 5.8 mph - N/A   Clear
9:15 PM 48.2 °F - 41.0 °F 76% 29.97 in 10.0 mi WSW 4.6 mph - N/A   Clear
9:35 PM 46.4 °F 44.3 °F 41.0 °F 81% 29.97 in 10.0 mi WSW 4.6 mph - N/A   Clear
9:55 PM 46.4 °F 44.3 °F 39.2 °F 76% 29.98 in 10.0 mi WSW 4.6 mph - N/A   Clear
10:15 PM 46.4 °F 43.5 °F 39.2 °F 76% 29.98 in 10.0 mi WSW 5.8 mph - N/A   Clear
10:35 PM 44.6 °F 40.7 °F 39.2 °F 81% 29.98 in 10.0 mi WSW 6.9 mph - N/A   Clear
10:55 PM 44.6 °F 42.2 °F 39.2 °F 81% 29.98 in 10.0 mi WSW 4.6 mph - N/A   Clear
11:15 PM 44.6 °F 42.2 °F 39.2 °F 81% 29.98 in 10.0 mi WSW 4.6 mph - N/A   Clear
11:35 PM 44.6 °F 42.2 °F 39.2 °F 81% 29.98 in 10.0 mi WSW 4.6 mph - N/A   Clear
11:55 PM 44.6 °F 42.2 °F 39.2 °F 81% 29.98 in 10.0 mi WSW 4.6 mph - N/A   Clear